STARLINK-35249, 65901

Orbit data source: Space-Track

STARLINK-35249, 65901 is a payload satellite owned by SpaceX/Seattle (US) in LEO that was launched on Tue, 07 Oct 2025 UTC via an FALCON 9 launch vehicle from the Air Force Eastern Test Range (AFETR). Payload-class satellites include a variety of spacecraft equipped with specific instruments for various scientific and technological missions. These include communications satellites like Starlink; space stations such as the ISS; scientific satellites like the Hubble; Earth observation satellites from companies like Planet Labs, Umbra, and HawkEye 360; GPS; miniature CubeSats for education and research; and military/defense satellites.

Loading next visibility...
Identifier
65901, 2025-224V
Orbit
LEO
Country
Flag of USUS
Related business
Manufacturer
SpaceX/Seattle
Mission
Operational spacecraft
Bus & Motor
STARLINK V2MO, Unknown motor
Mass
575 kg wet, ~530 kg dry
Launch date (UTC)
2025-10-07 (2 months ago)
Launch vehicle
FALCON 9
Launch site
Air Force Eastern Test Range (AFETR)
Object type
Payload
Rocket body
Debris
Shape & HBR
Unknown shape, 17.7 m
Radar Cross Section
RCS unknown

Expand to show TLE details & history
Last TLE update: 1 day ago

TLE from 1 day ago
0 STARLINK-35249
1 65901U 25224V   25338.60013152  .00031038  00000-0  10560-2 0  9994
2 65901  53.1611  93.1626 0001325  58.2107 301.9023 15.30190087 10295
Epoch: 2025-12-04T14:24Z
TLE epoch observation values (Epoch: 2025-12-04T14:24:11.363Z)
Latitude
0.00001°
Longitude
163.46101°
Altitude
475.665 km
Speed
7.629 km/s
True Right ascension
06h 12m 39s
True Declination
0° 00' 00"
Sunlit
Object was in full shadow at epoch
Visualization orbit readout
Latitude
Unknown
Longitude
Unknown
Altitude
Unknown
Speed
Unknown
Apparent Right ascension
Unknown
Apparent Declination
Unknown
Sunlit
N/A
Visualization observer readout
Local Sidereal Time
12:42:19
Azimuth
Unknown
Elevation
Unknown
Doppler factor
Unknown
Orbital elements
Apogee altitude
476.409 km
Perigee altitude
474.593 km
Semi-major axis
6,853.638 km
Eccentricity
0.00013
Inclination
53.1611°
RAAN
93.1626°
Arg. of periapsis
58.2107°
True anomaly
301.88941°
Mean anomaly
301.9023°
Eccentric anomaly
301.89585°
Mean motion
3.82526 °/min
Orbital period
94.11 mins
BSTAR
0.001056
Loading maneuver chart data...
Computing Atmospheric mass density...
Loading historical data...
Loading historical data...
Loading historical data...
Loading historical data...
Loading historical data...
Loading historical data...
Loading historical data...

Documentation

Showing up to 5 results
|